Denver Centennial, CO

9:43 PM MDT on September 25, 2017 (GMT -0600)
Centennial

Weather History for KAPA - May, 2013

Change the Weather History Date:

Thursday, May 23, 2013

  Actual Average Record
Temperature  
Mean Temperature 58 °F -  
Max Temperature 68 °F 71 °F 86 °F (2000)
Min Temperature 48 °F 43 °F 37 °F (2002)
Degree Days  
Heating Degree Days 7    
Month to date heating degree days 271  
Growing Degree Days 7 (Base 50)    
Moisture  
Dew Point 44 °F    
Average Humidity 64    
Maximum Humidity 83    
Minimum Humidity 44    
Precipitation  
Precipitation 0.00 in - - ()
Month to date precipitation 1.65  
Year to date precipitation 4.61  
Sea Level Pressure  
Sea Level Pressure 29.94 in    
Wind  
Wind Speed 11 mph (SSE)    
Max Wind Speed 29 mph    
Max Gust Speed 36 mph    
Visibility 10 miles    
Events      
Averages and records for this station are not official NWS values.
T = Trace of Precipitation, MM = Missing Value Source: NWS Daily Summary

Daily Weather History Graph

Daily Weather History Graph

Search for Another Location

Airport or City:

Trip Planner

Search our weather history database for the weather conditions in past years. The results will help you decide how hot, cold, wet, or windy it might be!

Date:

Astronomy

May. 23, 2013 Rise Set
Actual Time 5:38 AM MDT 8:14 PM MDT
Civil Twilight 5:07 AM MDT 8:45 PM MDT
Nautical Twilight 4:28 AM MDT 9:24 PM MDT
Astronomical Twilight 3:45 AM MDT 10:08 PM MDT
Moon 6:49 PM MDT (5/23) 4:24 AM MDT (5/23)
Length of Visible Light 15h 37m
Length of Day
14h 35m
Waxing Gibbous, 97% of the Moon is Illuminated
May 23
Waxing Gibbous
May 24
Full
May 31
Last Quarter
Jun 8
New
Jun 16
First Quarter

Hourly Weather History & Observations

Time (MDT) Temp. Dew Point Humidity Pressure Visibility Wind Dir Wind Speed Gust Speed Precip Events Conditions
12:53 AM 50.0 °F 44.1 °F 80% 29.98 in 10.0 mi ESE 5.8 mph - N/A   Scattered Clouds
1:53 AM 50.0 °F 43.0 °F 77% 29.97 in 10.0 mi Calm Calm - N/A   Clear
2:53 AM 50.0 °F 43.0 °F 77% 29.97 in 10.0 mi Calm Calm - N/A   Mostly Cloudy
3:53 AM 51.1 °F 46.0 °F 83% 29.97 in 10.0 mi SW 6.9 mph - N/A   Mostly Cloudy
4:53 AM 51.1 °F 42.1 °F 71% 29.99 in 10.0 mi South 11.5 mph - N/A   Mostly Cloudy
5:53 AM 48.9 °F 42.1 °F 77% 30.00 in 10.0 mi SSE 9.2 mph - N/A   Scattered Clouds
6:53 AM 51.1 °F 43.0 °F 74% 29.99 in 10.0 mi SSW 3.5 mph - N/A   Scattered Clouds
7:53 AM 54.0 °F 44.1 °F 69% 29.99 in 10.0 mi South 18.4 mph - N/A   Scattered Clouds
8:53 AM 55.9 °F 44.1 °F 64% 29.98 in 10.0 mi SSE 17.3 mph 25.3 mph N/A   Scattered Clouds
9:53 AM 57.9 °F 44.1 °F 60% 29.98 in 10.0 mi SSE 18.4 mph 25.3 mph N/A   Scattered Clouds
10:53 AM 60.1 °F 44.1 °F 55% 29.97 in 10.0 mi SSE 19.6 mph 27.6 mph N/A   Scattered Clouds
11:53 AM 61.0 °F 44.1 °F 54% 29.96 in 10.0 mi SSE 17.3 mph 26.5 mph N/A   Scattered Clouds
12:53 PM 63.0 °F 45.0 °F 52% 29.95 in 10.0 mi SSE 19.6 mph 26.5 mph N/A   Scattered Clouds
1:53 PM 62.1 °F 45.0 °F 53% 29.93 in 10.0 mi SE 17.3 mph 27.6 mph N/A   Mostly Cloudy
2:53 PM 66.9 °F 45.0 °F 45% 29.89 in 10.0 mi SE 16.1 mph 24.2 mph N/A   Mostly Cloudy
3:53 PM 64.9 °F 43.0 °F 45% 29.89 in 10.0 mi SSE 18.4 mph 27.6 mph N/A   Mostly Cloudy
4:53 PM 63.0 °F 42.1 °F 46% 29.89 in 10.0 mi South 19.6 mph 29.9 mph N/A   Mostly Cloudy
5:53 PM 64.9 °F 43.0 °F 45% 29.89 in 10.0 mi SSE 18.4 mph 32.2 mph N/A   Scattered Clouds
6:53 PM 60.1 °F 44.1 °F 55% 29.89 in 10.0 mi South 26.5 mph 32.2 mph N/A   Scattered Clouds
7:53 PM 57.0 °F 43.0 °F 59% 29.90 in 10.0 mi South 20.7 mph 31.1 mph N/A   Scattered Clouds
8:53 PM 55.9 °F 43.0 °F 62% 29.91 in 10.0 mi South 18.4 mph - N/A   Partly Cloudy
9:53 PM 57.0 °F 44.1 °F 62% 29.91 in 10.0 mi South 15.0 mph - N/A   Partly Cloudy
10:53 PM 55.9 °F 44.1 °F 64% 29.94 in 10.0 mi South 24.2 mph 29.9 mph N/A   Partly Cloudy
11:53 PM 55.9 °F 45.0 °F 67% 29.91 in 10.0 mi South 18.4 mph 31.1 mph N/A   Clear